This is the latest recevied weather packets stored in our database for station/object K2ATL. If no packets are shown the sender has not sent any weather packets the latest 10 day(s).
| Time | Temp. | Humidity | Pressure | Rain* | Wind** | Luminosity | Snow |
|---|---|---|---|---|---|---|---|
| 1777398863 | 17.78° C | 79% | 1105.8 hPa | 0 mm | - | 654 W/m² | - |
| 1777398560 | 17.78° C | 77% | 1105.8 hPa | 0 mm | - | 586 W/m² | - |
| 1777398256 | 17.78° C | 79% | 1105.9 hPa | 0 mm | - | 659 W/m² | - |
| 1777397954 | 17.22° C | 78% | 1106.1 hPa | 0 mm | - | 693 W/m² | - |
| 1777397649 | 16.67° C | 84% | 1105.9 hPa | 0 mm | - | 416 W/m² | - |
| 1777397346 | 16.11° C | 85% | 1105.9 hPa | 0 mm | - | 709 W/m² | - |
| 1777397042 | 16.67° C | 87% | 1106.1 hPa | 0 mm | - | 744 W/m² | - |
| 1777396739 | 15.56° C | 89% | 1106.2 hPa | 0 mm | - | 931 W/m² | - |
| 1777396436 | 14.44° C | 91% | 1106.2 hPa | 0 mm | - | 1121 W/m² | - |
| 1777396132 | 13.89° C | 96% | 1106.4 hPa | 0 mm | - | 860 W/m² | - |
| 1777395828 | 13.33° C | 98% | 1106.4 hPa | 0 mm | - | 612 W/m² | - |
| 1777395524 | 13.33° C | 99% | 1106.4 hPa | 0 mm | - | 345 W/m² | - |
| 1777395221 | 12.78° C | 99% | 1106.5 hPa | 0 mm | - | 398 W/m² | - |
| 1777394919 | 13.89° C | 99% | 1106.5 hPa | 0 mm | - | 244 W/m² | - |
| 1777394613 | 13.33° C | 99% | 1106.5 hPa | 0 mm | - | 258 W/m² | - |
| 1777394311 | 12.22° C | 99% | 1106.6 hPa | 0 mm | - | 431 W/m² | - |
| 1777394007 | 11.67° C | 99% | 1106.5 hPa | 0 mm | - | 500 W/m² | - |
| 1777393707 | 12.22° C | 99% | 1106.5 hPa | 0 mm | - | 370 W/m² | - |
| 1777393402 | 13.33° C | 99% | 1106.6 hPa | 0 mm | - | 302 W/m² | - |
| 1777393099 | 12.78° C | 99% | 1106.6 hPa | 0 mm | - | 420 W/m² | - |
| 1777392795 | 12.78° C | 99% | 1106.4 hPa | 0 mm | - | 767 W/m² | - |
| 1777392491 | 12.22° C | 99% | 1106.5 hPa | 0 mm | - | 502 W/m² | - |
| 1777392187 | 12.22° C | 99% | 1106.4 hPa | 0 mm | - | 643 W/m² | - |
| 1777391882 | 11.67° C | 99% | 1106.5 hPa | 0 mm | - | 841 W/m² | - |
| 1777391577 | 12.22° C | 99% | 1106.3 hPa | 0 mm | - | 410 W/m² | - |
* Rain latest hour (hover to see other rain measurements)
** Current wind speed in m/s (hover to see current wind gust speed)